Date String (YYYY-MM-DD hh:mm:ss) UTC,Instrument flags,Ambient pressure (hPa),Sample flow (lpm),Bypass flow (lpm),Sample temperature (°C),Ambient temperature (°C),ASC tube jacket temperature (°C),LED temperature (°C),Box temperature (°C),Sample RH (%),Span deviation,Mass concentration (μg/m³),Mass concentration (μg/m³),Mass concentration (μg/m³)
DateTimeUTC,F1_M11,P_M11,Q1_M11,Q2_M11,T1_M11,T2_M11,T3_M11,T4_M11,T5_M11,U1_M11,ZSPAN_M11,X0_M11,X2_M11,X1_M11
2021-09-23 12:00:00,,0828.3,5.00,0.00,30.6,29.7,00.0,39.7,32.3,10.2,0000.0,0009.80,0002.73,0001.59
2021-09-23 12:01:00,,0828.2,5.01,0.00,30.6,29.7,00.0,39.7,32.3,10.1,0000.0,0009.43,0002.76,0001.59
2021-09-23 12:02:00,,0828.2,4.99,0.00,30.6,29.7,00.0,39.7,32.3,10.0,0000.0,0009.80,0002.76,0001.58
2021-09-23 12:03:00,,0828.1,5.00,0.00,30.6,29.7,00.0,39.7,32.3,10.0,0000.0,0009.18,0002.71,0001.59
2021-09-23 12:04:00,,0828.1,5.02,0.00,30.6,29.7,00.0,39.7,32.3,09.8,0000.0,0009.11,0002.70,0001.60
2021-09-23 12:05:00,,0828.1,5.00,0.00,30.6,29.7,00.0,39.7,32.3,09.7,0000.0,0009.63,0002.70,0001.60
2021-09-23 12:06:00,,0828.2,4.99,0.00,30.6,29.7,00.0,39.7,32.3,09.7,0000.0,0009.72,0002.78,0001.61
2021-09-23 12:07:00,,0828.2,5.00,0.00,30.6,29.7,00.0,39.7,32.3,09.7,0000.0,0009.67,0002.78,0001.61
2021-09-23 12:08:00,,0828.2,5.00,0.00,30.6,29.7,00.0,39.7,32.3,09.7,0000.0,0009.77,0002.78,0001.61
2021-09-23 12:09:00,,0828.2,5.01,0.00,30.6,29.7,00.0,39.7,32.3,09.6,0000.0,0009.97,0002.81,0001.61
2021-09-23 12:10:00,,0828.3,5.00,0.00,30.6,29.7,00.0,39.8,32.3,09.5,0000.0,0010.94,0002.81,0001.60
2021-09-23 12:11:00,,0828.3,4.99,0.00,30.6,29.7,00.0,39.8,32.3,09.6,0000.0,0010.54,0002.80,0001.59
2021-09-23 12:12:00,,0828.3,5.00,0.00,30.6,29.7,00.0,39.8,32.3,09.6,0000.0,0010.90,0002.86,0001.59
2021-09-23 12:13:00,,0828.3,5.00,0.00,30.6,29.7,00.0,39.8,32.3,09.6,0000.0,0010.44,0002.93,0001.58
2021-09-23 12:14:00,,0828.3,5.00,0.00,30.6,29.7,00.0,39.8,32.3,09.6,0000.0,0011.39,0003.01,0001.58
2021-09-23 12:15:00,,0828.3,5.01,0.00,30.6,29.7,00.0,39.8,32.3,09.6,0000.0,0012.15,0003.08,0001.56
2021-09-23 12:16:00,,0828.3,4.99,0.00,30.6,29.6,00.0,39.8,32.3,09.5,0000.0,0012.34,0003.16,0001.55
2021-09-23 12:17:00,,0828.5,4.99,0.00,30.5,27.7,00.0,39.7,31.8,09.4,0000.0,0012.71,0003.20,0001.53
2021-09-23 12:18:00,,0828.4,5.00,0.00,30.3,26.5,00.0,39.7,31.4,09.4,0000.0,0012.67,0003.21,0001.51
2021-09-23 12:19:00,,0828.3,5.02,0.00,30.2,26.6,00.0,39.6,31.4,09.4,0000.0,0012.72,0003.23,0001.49
2021-09-23 12:20:00,,0828.3,4.99,0.00,30.1,27.0,00.0,39.5,31.4,09.4,0000.0,0012.71,0003.26,0001.47
2021-09-23 12:21:00,,0828.4,5.00,0.00,30.1,27.4,00.0,39.5,31.5,09.0,0000.0,0011.57,0003.25,0001.46
2021-09-23 12:22:00,,0828.4,5.00,0.00,30.0,27.7,00.0,39.4,31.5,09.0,0000.0,0011.00,0003.24,0001.45
2021-09-23 12:23:00,,0828.4,5.01,0.00,30.0,28.0,00.0,39.4,31.5,09.0,0000.0,0010.97,0003.19,0001.43
2021-09-23 12:24:00,,0828.4,4.99,0.00,30.0,28.2,00.0,39.4,31.6,08.9,0000.0,0011.22,0003.20,0001.43
2021-09-23 12:25:00,,0828.3,5.00,0.00,30.0,28.4,00.0,39.3,31.6,09.0,0000.0,0010.41,0003.17,0001.42
2021-09-23 12:26:00,,0828.3,5.00,0.00,30.0,28.5,00.0,39.3,31.7,08.9,0000.0,0009.37,0003.13,0001.43
2021-09-23 12:27:00,,0828.3,5.00,0.00,30.0,28.6,00.0,39.3,31.7,09.0,0000.0,0009.45,0003.08,0001.43
2021-09-23 12:28:00,,0828.3,4.99,0.00,30.0,28.7,00.0,39.3,31.7,08.9,0000.0,0008.87,0002.98,0001.43
2021-09-23 12:29:00,,0828.3,5.00,0.00,30.0,28.7,00.0,39.3,31.7,08.9,0000.0,0009.03,0003.00,0001.44
2021-09-23 12:30:00,,0828.3,5.00,0.00,30.1,28.8,00.0,39.3,31.7,08.9,0000.0,0009.53,0003.12,0001.44
2021-09-23 12:31:00,,0828.3,5.01,0.00,30.1,28.8,00.0,39.3,31.7,08.9,0000.0,0010.28,0003.06,0001.44
2021-09-23 12:32:00,,0828.3,5.00,0.00,30.1,28.9,00.0,39.3,31.8,08.9,0000.0,0010.44,0003.10,0001.45
2021-09-23 12:33:00,,0828.3,4.99,0.00,30.1,28.9,00.0,39.3,31.7,08.9,0000.0,0010.70,0003.17,0001.46
2021-09-23 12:34:00,,0828.3,5.02,0.00,30.1,28.9,00.0,39.3,31.8,09.1,0000.0,0010.81,0003.17,0001.47
2021-09-23 12:35:00,,0828.3,4.99,0.00,30.1,29.0,00.0,39.3,31.8,09.2,0000.0,0010.37,0003.09,0001.48
2021-09-23 12:36:00,,0828.4,5.01,0.00,30.1,29.0,00.0,39.3,31.8,09.2,0000.0,0010.50,0003.02,0001.48
2021-09-23 12:37:00,,0828.4,5.00,0.00,30.1,29.0,00.0,39.3,31.8,09.3,0000.0,0010.61,0003.05,0001.47
2021-09-23 12:38:00,,0828.5,4.99,0.00,30.1,29.1,00.0,39.3,31.9,09.2,0000.0,0010.14,0003.09,0001.48
2021-09-23 12:39:00,,0828.5,5.01,0.00,30.1,29.1,00.0,39.3,31.9,09.2,0000.0,0009.73,0003.04,0001.48
2021-09-23 12:40:00,,0828.5,5.00,0.00,30.1,29.1,00.0,39.3,31.9,09.1,0000.0,0009.74,0002.99,0001.47
2021-09-23 12:41:00,,0828.4,5.00,0.00,30.2,29.1,00.0,39.3,31.9,09.1,0000.0,0009.42,0002.79,0001.47
2021-09-23 12:42:00,,0828.4,4.99,0.00,30.2,29.1,00.0,39.3,31.9,09.0,0000.0,0008.60,0002.70,0001.46
2021-09-23 12:43:00,,0828.4,5.00,0.00,30.2,29.2,00.0,39.3,31.9,09.0,0000.0,0008.54,0002.68,0001.47
2021-09-23 12:44:00,,0828.4,5.00,0.00,30.2,29.2,00.0,39.3,31.9,09.0,0000.0,0008.45,0002.64,0001.46
2021-09-23 12:45:00,,0828.4,4.99,0.00,30.2,29.2,00.0,39.3,31.9,09.0,0000.0,0008.26,0002.66,0001.47
2021-09-23 12:46:00,,0828.4,5.00,0.00,30.2,29.2,00.0,39.3,31.9,08.9,0000.0,0008.24,0002.68,0001.46
2021-09-23 12:47:00,,0828.4,5.01,0.00,30.2,29.2,00.0,39.3,31.9,08.8,0000.0,0007.96,0002.69,0001.44
2021-09-23 12:48:00,,0828.4,4.99,0.00,30.2,29.2,00.0,39.3,31.9,08.9,0000.0,0007.67,0002.60,0001.43
2021-09-23 12:49:00,,0828.5,5.00,0.00,30.2,29.2,00.0,39.3,31.9,09.0,0000.0,0007.40,0002.49,0001.41
2021-09-23 12:50:00,,0828.4,5.01,0.00,30.2,29.2,00.0,39.3,31.9,08.9,0000.0,0007.44,0002.47,0001.40
2021-09-23 12:51:00,,0828.5,5.01,0.00,30.2,29.2,00.0,39.3,32.0,08.9,0000.0,0007.59,0002.48,0001.40
2021-09-23 12:52:00,,0828.4,4.99,0.00,30.2,29.2,00.0,39.3,31.9,08.8,0000.0,0007.50,0002.53,0001.39
2021-09-23 12:53:00,,0828.4,5.00,0.00,30.2,29.2,00.0,39.3,31.9,08.7,0000.0,0007.38,0002.60,0001.38
2021-09-23 12:54:00,,0828.4,5.02,0.00,30.2,29.2,00.0,39.4,31.9,08.7,0000.0,0007.41,0002.56,0001.37
2021-09-23 12:55:00,,0828.4,4.99,0.00,30.2,29.2,00.0,39.4,32.0,08.7,0000.0,0007.84,0002.44,0001.36
2021-09-23 12:56:00,,0828.5,5.00,0.00,30.2,29.2,00.0,39.4,31.9,08.7,0000.0,0008.11,0002.46,0001.35
2021-09-23 12:57:00,,0828.5,4.99,0.00,30.2,29.2,00.0,39.4,32.0,08.7,0000.0,0007.99,0002.45,0001.34
2021-09-23 12:58:00,,0828.5,5.00,0.00,30.3,29.2,00.0,39.4,32.0,08.7,0000.0,0007.87,0002.37,0001.33
2021-09-23 12:59:00,,0828.5,4.99,0.00,30.3,29.2,00.0,39.4,32.0,08.6,0000.0,0008.21,0002.36,0001.33
